When you browse on this site, cookies collect data to enhance your experience and personalize the content and advertising you see.
Visit our Privacy Policy to learn more. By continuing to use the site, you agree to this use of cookies and data.
  • In Hungary
  • List of Countries
  • For 7 days
  • Water Temperature
  • Satellite Maps
  • Weather Map
  • News
  • Weather Widgets
  • user-avatar
    Login

    Hourly Weather Bogatoe

    Today, 17 November, Saturday

    Time Temperature Precipitation Wind Pressure Humidity
    00:00 -2°C° 0 mm 1 mps 777 mmHg 32%
    01:00 -2°C° 0 mm 1 mps 777 mmHg 31%
    02:00 -2°C° 0 mm 1 mps 777 mmHg 31%
    03:00 -2°C° 0 mm 1 mps 776 mmHg 30%
    04:00 -2°C° 0 mm 1 mps 776 mmHg 29%
    05:00 -3°C° 0 mm 1 mps 776 mmHg 29%
    06:00 -3°C° 0 mm 1 mps 775 mmHg 28%
    07:00 -2°C° 0 mm 1 mps 775 mmHg 27%
    08:00 -1°C° 0 mm 1 mps 775 mmHg 25%
    09:00 -1°C° 0 mm 1 mps 774 mmHg 24%
    10:00 -2°C° 0 mm 2 mps 774 mmHg 22%
    11:00 +1°C° 0 mm 2 mps 773 mmHg 20%
    12:00 +2°C° 0 mm 2 mps 773 mmHg 18%
    13:00 +2°C° 0 mm 2 mps 772 mmHg 20%
    14:00 +1°C° 0 mm 2 mps 772 mmHg 21%
    15:00 +1°C° 0 mm 2 mps 771 mmHg 23%
    16:00 -1°C° 0 mm 3 mps 771 mmHg 24%
    17:00 -1°C° 0 mm 3 mps 770 mmHg 25%
    18:00 -2°C° 0 mm 3 mps 770 mmHg 26%
    19:00 -2°C° 0 mm 3 mps 769 mmHg 26%
    20:00 -2°C° 0 mm 3 mps 769 mmHg 26%
    21:00 -2°C° 0 mm 3 mps 768 mmHg 26%
    22:00 -2°C° 0 mm 3 mps 768 mmHg 26%
    23:00 -2°C° 0 mm 3 mps 767 mmHg 26%

    Tomorrow, 18 November, Sunday

    Time Temperature Precipitation Wind Pressure Humidity
    00:00 -4°C° 0 mm 3 mps 767 mmHg 27%
    01:00 -4°C° 0 mm 3 mps 766 mmHg 27%
    02:00 -4°C° 0 mm 4 mps 766 mmHg 28%
    03:00 -4°C° 0 mm 4 mps 765 mmHg 28%
    04:00 -4°C° 0 mm 3 mps 765 mmHg 28%
    05:00 -4°C° 0 mm 3 mps 764 mmHg 29%
    06:00 -4°C° 0 mm 3 mps 764 mmHg 29%
    07:00 -4°C° 0 mm 3 mps 764 mmHg 28%
    08:00 -4°C° 0 mm 3 mps 764 mmHg 28%
    09:00 -3°C° 0 mm 4 mps 764 mmHg 27%
    10:00 -2°C° 0 mm 4 mps 764 mmHg 25%
    11:00 -1°C° 0 mm 4 mps 763 mmHg 24%
    12:00 0°C° 0 mm 4 mps 763 mmHg 23%
    13:00 0°C° 0 mm 3 mps 763 mmHg 25%
    14:00 0°C° 0 mm 3 mps 763 mmHg 27%
    15:00 0°C° 0 mm 3 mps 763 mmHg 29%
    16:00 -1°C° 0 mm 3 mps 763 mmHg 32%
    17:00 -2°C° 0 mm 3 mps 763 mmHg 35%
    18:00 -4°C° 0 mm 3 mps 763 mmHg 37%
    19:00 -3°C° 0 mm 2 mps 764 mmHg 39%
    20:00 -3°C° 0 mm 2 mps 764 mmHg 40%
    21:00 -3°C° 0 mm 2 mps 764 mmHg 41%
    22:00 -3°C° 0 mm 2 mps 764 mmHg 42%
    23:00 -1°C° 0 mm 1 mps 764 mmHg 43%

    Day after tomorrow, 19 November, Monday

    Time Temperature Precipitation Wind Pressure Humidity
    00:00 -1°C° 0 mm 1 mps 765 mmHg 44%
    01:00 -2°C° 0 mm 1 mps 765 mmHg 45%
    02:00 -2°C° 0 mm 1 mps 765 mmHg 46%
    03:00 -2°C° 0 mm 1 mps 765 mmHg 47%
    04:00 -2°C° 0 mm 1 mps 766 mmHg 47%
    05:00 -3°C° 0 mm 0 mps 766 mmHg 48%
    06:00 -3°C° 0 mm 0 mps 766 mmHg 48%
    07:00 -3°C° 0 mm 0 mps 766 mmHg 47%
    08:00 -2°C° 0 mm 0 mps 767 mmHg 45%
    09:00 -2°C° 0 mm 0 mps 767 mmHg 44%
    10:00 -1°C° 0 mm 0 mps 767 mmHg 41%
    11:00 0°C° 0 mm 0 mps 768 mmHg 39%
    12:00 +1°C° 0 mm 0 mps 768 mmHg 36%
    13:00 +1°C° 0 mm 0 mps 768 mmHg 38%
    14:00 +1°C° 0 mm 0 mps 768 mmHg 40%
    15:00 0°C° 0 mm 0 mps 769 mmHg 42%
    16:00 0°C° 0 mm 0 mps 769 mmHg 43%
    17:00 -1°C° 0 mm 0 mps 769 mmHg 44%
    18:00 -1°C° 0 mm 0 mps 769 mmHg 45%
    19:00 -1°C° 0 mm 1 mps 769 mmHg 46%
    20:00 -1°C° 0 mm 1 mps 770 mmHg 46%
    21:00 -1°C° 0 mm 1 mps 770 mmHg 46%
    22:00 -1°C° 0 mm 1 mps 770 mmHg 46%
    23:00 -1°C° 0 mm 1 mps 770 mmHg 46%

    20 November, Tuesday

    Time Temperature Precipitation Wind Pressure Humidity
    00:00 -1°C° 0 mm 1 mps 770 mmHg 47%
    01:00 -2°C° 0 mm 1 mps 771 mmHg 46%
    02:00 -2°C° 0 mm 1 mps 771 mmHg 46%
    03:00 -2°C° 0 mm 1 mps 771 mmHg 46%
    04:00 -2°C° 0 mm 1 mps 771 mmHg 46%
    05:00 -2°C° 0 mm 1 mps 771 mmHg 46%
    06:00 -2°C° 0 mm 1 mps 771 mmHg 45%
    07:00 -2°C° 0 mm 1 mps 771 mmHg 44%
    08:00 -2°C° 0 mm 1 mps 771 mmHg 43%
    09:00 -1°C° 0 mm 1 mps 771 mmHg 42%
    10:00 0°C° 0 mm 1 mps 771 mmHg 40%
    11:00 0°C° 0 mm 1 mps 771 mmHg 38%
    12:00 0°C° 0 mm 0 mps 771 mmHg 36%
    13:00 0°C° 0 mm 0 mps 770 mmHg 37%
    14:00 0°C° 0 mm 0 mps 770 mmHg 38%
    15:00 -1°C° 0 mm 0 mps 770 mmHg 39%
    16:00 -1°C° 0 mm 0 mps 769 mmHg 40%
    17:00 -1°C° 0 mm 0 mps 769 mmHg 40%
    18:00 -2°C° 0 mm 0 mps 769 mmHg 41%
    19:00 -1°C° 0 mm 1 mps 768 mmHg 41%
    20:00 -1°C° 0 mm 1 mps 768 mmHg 40%
    21:00 -1°C° 0 mm 1 mps 768 mmHg 40%
    22:00 -1°C° 0 mm 1 mps 768 mmHg 40%
    23:00 -1°C° 0 mm 1 mps 767 mmHg 40%

    21 November, Wednesday

    Time Temperature Precipitation Wind Pressure Humidity
    00:00 -1°C° 0 mm 1 mps 767 mmHg 40%
    01:00 -1°C° 0 mm 1 mps 767 mmHg 41%
    02:00 -1°C° 0 mm 1 mps 766 mmHg 41%
    03:00 -1°C° 0 mm 1 mps 766 mmHg 42%
    04:00 -1°C° 0 mm 1 mps 766 mmHg 43%
    05:00 -1°C° 0 mm 1 mps 765 mmHg 44%
    06:00 -1°C° 0 mm 1 mps 765 mmHg 46%
    07:00 0°C° 0 mm 1 mps 765 mmHg 48%
    08:00 0°C° 0 mm 1 mps 765 mmHg 49%
    09:00 0°C° 0 mm 1 mps 764 mmHg 51%
    10:00 +1°C° 0 mm 1 mps 764 mmHg 53%
    11:00 +1°C° 0 mm 1 mps 764 mmHg 55%
    12:00 +2°C° 0 mm 1 mps 763 mmHg 56%
    13:00 +1°C° 0 mm 1 mps 763 mmHg 59%
    14:00 +1°C° 0 mm 1 mps 763 mmHg 61%
    15:00 +1°C° 0 mm 1 mps 762 mmHg 63%
    16:00 +1°C° 0 mm 1 mps 762 mmHg 65%
    17:00 0°C° 0 mm 1 mps 762 mmHg 67%
    18:00 0°C° 0 mm 1 mps 762 mmHg 69%
    19:00 -1°C° 0 mm 1 mps 762 mmHg 70%
    20:00 -1°C° 0 mm 1 mps 761 mmHg 70%
    21:00 -1°C° 0 mm 1 mps 761 mmHg 71%
    22:00 -1°C° 0 mm 1 mps 761 mmHg 72%
    23:00 -3°C° 0 mm 2 mps 761 mmHg 72%

    22 November, Thursday

    Time Temperature Precipitation Wind Pressure Humidity
    00:00 -3°C° 0 mm 2 mps 761 mmHg 72%
    01:00 -4°C° 0 mm 2 mps 760 mmHg 73%
    02:00 -4°C° 0 mm 2 mps 760 mmHg 74%
    03:00 -4°C° 0 mm 2 mps 760 mmHg 75%
    04:00 -4°C° 0 mm 2 mps 760 mmHg 78%
    05:00 -4°C° 0 mm 2 mps 760 mmHg 81%
    06:00 -6°C° 0 mm 3 mps 760 mmHg 85%
    07:00 -6°C° 0 mm 3 mps 760 mmHg 84%
    08:00 -5°C° 0 mm 3 mps 760 mmHg 83%
    09:00 -5°C° 0 mm 4 mps 760 mmHg 83%
    10:00 -4°C° 0 mm 4 mps 760 mmHg 78%
    11:00 -4°C° 0 mm 4 mps 760 mmHg 72%
    12:00 -3°C° 0 mm 4 mps 760 mmHg 67%
    13:00 -2°C° 0 mm 3 mps 760 mmHg 65%
    14:00 -2°C° 0 mm 3 mps 760 mmHg 63%
    15:00 -2°C° 0 mm 3 mps 760 mmHg 61%
    16:00 -4°C° 0 mm 3 mps 760 mmHg 64%
    17:00 -5°C° 0 mm 3 mps 760 mmHg 66%
    18:00 -5°C° 0 mm 3 mps 760 mmHg 68%
    19:00 -5°C° 0 mm 3 mps 760 mmHg 70%
    20:00 -6°C° 0 mm 3 mps 760 mmHg 71%
    21:00 -6°C° 0 mm 3 mps 760 mmHg 72%
    22:00 -6°C° 0 mm 3 mps 761 mmHg 73%
    23:00 -6°C° 0 mm 3 mps 761 mmHg 73%
    Show more